Tracking 18917 objects as of 16-Jan-2018
HD Live streaming from Space Station
objects crossing your sky now

COSMOS 2504

Track COSMOS 2504 now!
10-day predictions
COSMOS 2504 is classified as:


NORAD ID: 40555
Int'l Code: 2015-020D
Perigee: 634.1 km
Apogee: 1,508.3 km
Inclination: 82.5 °
Period: 106.5 minutes
Semi major axis: 7442 km
RCS: Unknown
Launch date: March 31, 2015
Source: Commonwealth of Independent States (former USSR) (CIS)
Launch site: PLESETSK MISSILE AND SPACE COMPLEX (PKMTR)

COSMOS 2504 is a secretive Russian military satellite. Russian officials have not disclosed information on its mission.
aabbcc
Your satellite tracking list
Your tracking list is empty




NASA's NSSDC Master Catalog

Two Line Element Set (TLE):
1 40555U 15020D   18016.51009184  .00000040  00000-0  15518-4 0  9999
2 40555  82.5224  74.2311 0587332 308.6406  46.3537 13.52227310132928
Source of the keplerian elements: AFSPC